Date String (YYYY-MM-DD hh:mm:ss) UTC,Instrument flags,absolute air pressure of the measurement (hPa),sample flow rate (lpm),inlet stack bypass flow (lpm),air temperature of the measurement (°C),ambient temperature measured by the external sensor (°C),aerosol sample conditioner tube jacket temperature (°C),OPC LED temperature (°C),internal box temperature (°C),relative humidity of the measurement (%),span deviation,mass concentration of particles derived from Lorenz-Mie calculation of OPC scattering (μg/m³),mass concentration of particles derived from Lorenz-Mie calculation of OPC scattering (μg/m³),mass concentration of particles derived from Lorenz-Mie calculation of OPC scattering (μg/m³)
DateTimeUTC,F1_M11,P_M11,Q1_M11,Q2_M11,T1_M11,T2_M11,T3_M11,T4_M11,T5_M11,U1_M11,ZSPAN_M11,X0_M11,X2_M11,X1_M11
2023-06-16 09:00:00,SystemResetWarning,0831.1,5.00,000.00,030.1,028.5,000.0,038.7,031.6,29.3,0000.0,0008.05,0003.85,0003.36
2023-06-16 09:01:00,SystemResetWarning,0831.1,5.00,000.00,030.2,028.5,000.0,038.7,031.6,29.3,0000.0,0007.98,0003.85,0003.35
2023-06-16 09:02:00,SystemResetWarning,0831.1,5.00,000.00,030.2,028.5,000.0,038.7,031.7,29.2,0000.0,0007.95,0003.84,0003.33
2023-06-16 09:03:00,SystemResetWarning,0831.1,5.00,000.00,030.2,028.5,000.0,038.7,031.7,29.1,0000.0,0007.76,0003.83,0003.33
2023-06-16 09:04:00,SystemResetWarning,0831.1,4.99,000.00,030.2,028.5,000.0,038.7,031.7,29.1,0000.0,0007.49,0003.83,0003.33
2023-06-16 09:05:00,SystemResetWarning,0831.1,5.00,000.00,030.2,028.6,000.0,038.8,031.6,29.0,0000.0,0007.45,0003.82,0003.31
2023-06-16 09:06:00,SystemResetWarning,0831.1,5.00,000.00,030.2,028.6,000.0,038.8,031.7,28.9,0000.0,0006.64,0003.82,0003.30
2023-06-16 09:07:00,SystemResetWarning,0831.1,5.00,000.00,030.2,028.6,000.0,038.8,031.7,28.8,0000.0,0006.57,0003.80,0003.27
2023-06-16 09:08:00,SystemResetWarning,0831.1,5.00,000.00,030.2,028.6,000.0,038.8,031.7,28.8,0000.0,0006.52,0003.78,0003.24
2023-06-16 09:09:00,SystemResetWarning,0831.2,5.01,000.00,030.2,028.6,000.0,038.8,031.7,28.8,0000.0,0006.44,0003.74,0003.22
2023-06-16 09:10:00,SystemResetWarning,0831.1,5.01,000.00,030.2,028.6,000.0,038.8,031.7,28.7,0000.0,0006.41,0003.67,0003.18
2023-06-16 09:11:00,SystemResetWarning,0831.2,5.01,000.00,030.2,028.6,000.0,038.8,031.7,28.7,0000.0,0006.49,0003.59,0003.15
2023-06-16 09:12:00,SystemResetWarning,0831.1,5.00,000.00,030.2,028.6,000.0,038.8,031.7,28.6,0000.0,0006.51,0003.56,0003.11
2023-06-16 09:13:00,SystemResetWarning,0831.1,5.00,000.00,030.2,028.6,000.0,038.8,031.7,28.6,0000.0,0006.46,0003.52,0003.07
2023-06-16 09:14:00,SystemResetWarning,0831.1,5.00,000.00,030.2,028.6,000.0,038.8,031.7,28.6,0000.0,0006.90,0003.49,0003.01
2023-06-16 09:15:00,SystemResetWarning,0831.1,5.00,000.00,030.3,028.6,000.0,038.8,031.7,28.5,0000.0,0006.89,0003.42,0002.95
2023-06-16 09:16:00,SystemResetWarning,0831.1,5.00,000.00,030.3,028.6,000.0,038.8,031.7,28.4,0000.0,0006.84,0003.40,0002.91
2023-06-16 09:17:00,SystemResetWarning,0831.1,5.00,000.00,030.3,028.6,000.0,038.8,031.7,28.3,0000.0,0006.75,0003.35,0002.88
2023-06-16 09:18:00,SystemResetWarning,0831.1,5.00,000.00,030.3,028.6,000.0,038.8,031.7,28.2,0000.0,0006.63,0003.33,0002.85
2023-06-16 09:19:00,SystemResetWarning,0831.1,5.00,000.00,030.3,028.6,000.0,038.8,031.8,28.2,0000.0,0006.43,0003.29,0002.83
2023-06-16 09:20:00,SystemResetWarning,0831.1,5.00,000.00,030.3,028.6,000.0,038.8,031.7,28.1,0000.0,0006.26,0003.27,0002.80
2023-06-16 09:21:00,SystemResetWarning,0831.0,5.00,000.00,030.3,028.7,000.0,038.9,031.8,28.1,0000.0,0005.93,0003.25,0002.78
2023-06-16 09:22:00,SystemResetWarning,0831.1,5.00,000.00,030.3,028.7,000.0,038.9,031.8,28.1,0000.0,0005.78,0003.26,0002.77
2023-06-16 09:23:00,SystemResetWarning,0831.1,5.01,000.00,030.3,028.7,000.0,038.9,031.8,28.1,0000.0,0005.80,0003.26,0002.77
2023-06-16 09:24:00,SystemResetWarning,0831.1,5.00,000.00,030.3,028.7,000.0,038.9,031.7,28.1,0000.0,0005.81,0003.29,0002.77
2023-06-16 09:25:00,SystemResetWarning,0831.1,5.00,000.00,030.3,028.7,000.0,038.9,031.8,28.1,0000.0,0005.46,0003.30,0002.78
2023-06-16 09:26:00,SystemResetWarning,0831.0,5.00,000.00,030.3,028.7,000.0,038.9,031.8,28.0,0000.0,0005.27,0003.31,0002.80
2023-06-16 09:27:00,SystemResetWarning,0831.0,5.00,000.00,030.3,028.7,000.0,038.9,031.8,27.8,0000.0,0005.24,0003.32,0002.80
2023-06-16 09:28:00,SystemResetWarning,0830.9,4.99,000.00,030.3,028.7,000.0,038.9,031.8,27.6,0000.0,0005.14,0003.28,0002.76
2023-06-16 09:29:00,SystemResetWarning,0830.9,4.99,000.00,030.3,028.7,000.0,038.9,031.8,27.4,0000.0,0005.86,0003.26,0002.73
2023-06-16 09:30:00,SystemResetWarning,0830.9,5.01,000.00,030.4,028.7,000.0,038.9,031.8,27.5,0000.0,0006.47,0003.26,0002.71
2023-06-16 09:31:00,SystemResetWarning,0830.9,5.01,000.00,030.4,028.7,000.0,038.9,031.8,27.5,0000.0,0006.65,0003.28,0002.70
2023-06-16 09:32:00,SystemResetWarning,0831.0,5.00,000.00,030.4,028.7,000.0,038.9,031.8,27.5,0000.0,0006.73,0003.28,0002.68
2023-06-16 09:33:00,SystemResetWarning,0831.0,4.99,000.00,030.4,028.7,000.0,038.9,031.8,27.5,0000.0,0006.67,0003.30,0002.67
2023-06-16 09:34:00,SystemResetWarning,0831.0,4.99,000.00,030.4,028.7,000.0,038.9,031.8,27.4,0000.0,0006.52,0003.26,0002.65
2023-06-16 09:35:00,SystemResetWarning,0831.0,5.00,000.00,030.4,028.7,000.0,039.0,031.8,27.3,0000.0,0006.43,0003.22,0002.63
2023-06-16 09:36:00,SystemResetWarning,0831.0,5.00,000.00,030.4,028.7,000.0,039.0,031.8,27.4,0000.0,0006.26,0003.18,0002.59
2023-06-16 09:37:00,SystemResetWarning,0831.0,5.00,000.00,030.4,028.7,000.0,039.0,031.9,27.5,0000.0,0006.10,0003.15,0002.55
2023-06-16 09:38:00,SystemResetWarning,0831.0,5.00,000.00,030.4,028.8,000.0,039.0,031.9,27.4,0000.0,0007.21,0003.14,0002.53
2023-06-16 09:39:00,SystemResetWarning,0830.9,5.01,000.00,030.4,028.8,000.0,039.0,031.9,27.5,0000.0,0007.09,0003.13,0002.54
2023-06-16 09:40:00,SystemResetWarning,0830.9,5.00,000.00,030.4,028.8,000.0,039.0,031.9,27.6,0000.0,0006.32,0003.13,0002.55
2023-06-16 09:41:00,SystemResetWarning,0830.9,5.00,000.00,030.4,028.8,000.0,039.0,031.9,27.6,0000.0,0005.82,0003.13,0002.57
2023-06-16 09:42:00,SystemResetWarning,0830.9,5.00,000.00,030.4,028.8,000.0,039.0,031.9,27.6,0000.0,0005.68,0003.10,0002.58
2023-06-16 09:43:00,SystemResetWarning,0830.9,5.00,000.00,030.4,028.8,000.0,039.0,031.9,27.5,0000.0,0005.80,0003.11,0002.58
2023-06-16 09:44:00,SystemResetWarning,0830.9,5.00,000.00,030.4,028.8,000.0,039.0,031.9,27.4,0000.0,0005.95,0003.10,0002.58
2023-06-16 09:45:00,SystemResetWarning,0830.9,5.00,000.00,030.4,028.8,000.0,039.0,031.9,27.4,0000.0,0006.17,0003.11,0002.58
2023-06-16 09:46:00,SystemResetWarning,0830.9,5.00,000.00,030.4,028.8,000.0,039.0,031.9,27.4,0000.0,0006.29,0003.08,0002.56
2023-06-16 09:47:00,SystemResetWarning,0830.9,5.00,000.00,030.4,028.8,000.0,039.0,031.9,27.4,0000.0,0006.28,0003.07,0002.56
2023-06-16 09:48:00,SystemResetWarning,0830.9,5.00,000.00,030.4,028.8,000.0,039.0,031.9,27.5,0000.0,0006.30,0003.08,0002.56
2023-06-16 09:49:00,SystemResetWarning,0831.0,5.00,000.00,030.5,028.8,000.0,039.0,031.9,27.4,0000.0,0005.65,0003.07,0002.56
2023-06-16 09:50:00,SystemResetWarning,0830.9,5.00,000.00,030.5,028.8,000.0,039.0,031.9,27.3,0000.0,0005.55,0003.09,0002.57
2023-06-16 09:51:00,SystemResetWarning,0830.9,5.00,000.00,030.5,028.8,000.0,039.0,031.9,27.2,0000.0,0005.58,0003.09,0002.57
2023-06-16 09:52:00,SystemResetWarning,0830.9,5.00,000.00,030.5,028.8,000.0,039.0,031.9,27.2,0000.0,0005.54,0003.06,0002.56
2023-06-16 09:53:00,SystemResetWarning,0830.9,5.00,000.00,030.5,028.8,000.0,039.0,031.9,27.3,0000.0,0005.61,0003.09,0002.56
2023-06-16 09:54:00,SystemResetWarning,0830.9,5.00,000.00,030.5,028.8,000.0,039.0,031.9,27.3,0000.0,0005.65,0003.12,0002.58
2023-06-16 09:55:00,SystemResetWarning,0830.9,5.00,000.00,030.5,028.8,000.0,039.0,031.9,27.4,0000.0,0005.51,0003.14,0002.60
2023-06-16 09:56:00,SystemResetWarning,0830.9,5.00,000.00,030.5,028.8,000.0,039.0,031.9,27.4,0000.0,0005.49,0003.17,0002.62
2023-06-16 09:57:00,SystemResetWarning,0830.9,5.01,000.00,030.5,028.8,000.0,039.1,031.9,27.3,0000.0,0005.26,0003.19,0002.63
2023-06-16 09:58:00,SystemResetWarning,0830.8,5.01,000.00,030.5,028.8,000.0,039.1,031.9,27.5,0000.0,0005.56,0003.23,0002.66
2023-06-16 09:59:00,SystemResetWarning,0830.8,5.01,000.00,030.5,028.8,000.0,039.1,032.0,27.5,0000.0,0005.69,0003.25,0002.68
